This is the latest recevied weather packets stored in our database for station/object KC5DAQ-22. If no packets are shown the sender has not sent any weather packets the latest 1 day(s).
| Time | Temp. | Humidity | Pressure | Rain* | Wind** | Luminosity | Snow |
|---|---|---|---|---|---|---|---|
| 1778035521 | 25.56° C | 87% | 1006.6 hPa | 0 mm | 3.13 m/s, 114° | 0 W/m² | - |
| 1778035463 | 25.56° C | 87% | 1006.6 hPa | 0 mm | 2.68 m/s, 166° | 0 W/m² | - |
| 1778035401 | 25.56° C | 87% | 1006.5 hPa | 0 mm | 3.13 m/s, 164° | 0 W/m² | - |
| 1778035342 | 25.56° C | 87% | 1006.5 hPa | 0 mm | 3.13 m/s, 154° | 0 W/m² | - |
| 1778035280 | 26.11° C | 87% | 1006.5 hPa | 0 mm | 2.68 m/s, 180° | 0 W/m² | - |
| 1778035221 | 26.11° C | 87% | 1006.5 hPa | 0 mm | 2.24 m/s, 89° | 0 W/m² | - |
| 1778035163 | 26.11° C | 87% | 1006.5 hPa | 0 mm | 2.68 m/s, 161° | 0 W/m² | - |
| 1778035101 | 26.11° C | 87% | 1006.4 hPa | 0 mm | 2.68 m/s, 196° | 0 W/m² | - |
| 1778035042 | 26.11° C | 87% | 1006.4 hPa | 0 mm | 2.68 m/s, 144° | 0 W/m² | - |
| 1778034982 | 26.11° C | 87% | 1006.4 hPa | 0 mm | 2.68 m/s, 154° | 0 W/m² | - |
| 1778034922 | 26.11° C | 87% | 1006.5 hPa | 0 mm | 2.68 m/s, 135° | 0 W/m² | - |
| 1778034861 | 26.11° C | 86% | 1006.4 hPa | 0 mm | 2.68 m/s, 197° | 0 W/m² | - |
| 1778034801 | 26.11° C | 86% | 1006.4 hPa | 0 mm | 2.68 m/s, 173° | 0 W/m² | - |
| 1778034740 | 26.11° C | 86% | 1006.4 hPa | 0 mm | 2.68 m/s, 193° | 0 W/m² | - |
| 1778034680 | 26.11° C | 86% | 1006.4 hPa | 0 mm | 1.79 m/s, 166° | 0 W/m² | - |
| 1778034621 | 26.11° C | 86% | 1006.5 hPa | 0 mm | 1.79 m/s, 221° | 0 W/m² | - |
| 1778034561 | 26.11° C | 86% | 1006.4 hPa | 0 mm | 2.24 m/s, 147° | 0 W/m² | - |
| 1778034501 | 26.11° C | 86% | 1006.4 hPa | 0 mm | 3.13 m/s, 147° | 0 W/m² | - |
| 1778034441 | 26.11° C | 86% | 1006.4 hPa | 0 mm | 2.68 m/s, 121° | 0 W/m² | - |
| 1778034381 | 26.11° C | 86% | 1006.4 hPa | 0 mm | 1.79 m/s, 123° | 0 W/m² | - |
| 1778034322 | 26.11° C | 86% | 1006.4 hPa | 0 mm | 2.68 m/s, 103° | 0 W/m² | - |
| 1778034261 | 26.11° C | 86% | 1006.3 hPa | 0 mm | 2.68 m/s, 202° | 0 W/m² | - |
| 1778034201 | 26.11° C | 86% | 1006.3 hPa | 0 mm | 1.79 m/s, 151° | 0 W/m² | - |
| 1778034140 | 26.11° C | 86% | 1006.3 hPa | 0 mm | 1.79 m/s, 166° | 0 W/m² | - |
| 1778034081 | 26.11° C | 86% | 1006.3 hPa | 0 mm | 2.24 m/s, 154° | 0 W/m² | - |
* Rain latest hour (hover to see other rain measurements)
** Current wind speed in m/s (hover to see current wind gust speed)